Location: Poughquag
(41.6090°N, 73.6820°W)
Time: 19:57:50
(UTC-04:00)

MOZHAYETS 4 - Pass Details

Date: 17 August 2024
Orbit: 650 x 668 km, 98.3° (Epoch: 15 September)

Event Time Altitude Azimuth Distance (km) Brightness Sun altitude
Exits shadow 05:25:40 - 201° (SSW) 2,941 10.6 -7.8°
Reaches altitude 10° 05:28:12 10° 217° (SW) 2,091 9.7 -7.4°
Maximum altitude 05:31:39 21° 266° (W) 1,493 9.0 -6.8°
Drops below altitude 10° 05:35:08 10° 316° (NW) 2,104 10.1 -6.2°
Sets 05:37:52 0° 332° (NNW) 3,022 11.0 -5.7°
